Tracking 28790 objects as of 19-Apr-2024
HD Live streaming from Space Station
objects crossing your sky now

FENGYUN 1C DEB

Track FENGYUN 1C DEB now!
10-day predictions


NORAD ID: 30578
Int'l Code: 1999-025ALU
Perigee: 736.1 km
Apogee: 786.6 km
Inclination: 99.0 °
Period: 99.9 minutes
Semi major axis: 7132 km
RCS: 0.047 m2 (small)
Launch date: May 10, 1999
Source: People's Republic of China (PRC)
Launch site: Taiyaun Space Center, China (TSC)

Note: This is SATELLITE DEBRIS
Your satellite tracking list
Your tracking list is empty




NASA's NSSDC Master Catalog

Two Line Element Set (TLE):
1 30578U 99025ALU 24109.93526399  .00032807  00000-0  10034-1 0  9999
2 30578  99.0185 256.8070 0035412   5.6395 112.1982 14.41304180887977
Source of the keplerian elements: AFSPC